This is the latest recevied weather packets stored in our database for station/object OK1FET-15. If no packets are shown the sender has not sent any weather packets the latest 10 day(s).
| Time | Temp. | Humidity | Pressure | Rain* | Wind** | Luminosity | Snow |
|---|---|---|---|---|---|---|---|
| 1777783376 | 10° C | 56% | 1017.3 hPa | - | - | - | - |
| 1777783069 | 10° C | 55% | 1017.3 hPa | - | - | - | - |
| 1777782762 | 9.44° C | 55% | 1017.2 hPa | - | - | - | - |
| 1777782455 | 8.89° C | 56% | 1017.1 hPa | - | - | - | - |
| 1777782148 | 8.33° C | 57% | 1017.1 hPa | - | - | - | - |
| 1777781841 | 8.33° C | 58% | 1017.1 hPa | - | - | - | - |
| 1777781535 | 7.22° C | 58% | 1017 hPa | - | - | - | - |
| 1777781228 | 6.67° C | 59% | 1017.1 hPa | - | - | - | - |
| 1777780921 | 6.67° C | 58% | 1017.1 hPa | - | - | - | - |
| 1777780614 | 6.11° C | 59% | 1017.2 hPa | - | - | - | - |
| 1777780307 | 6.11° C | 58% | 1017.2 hPa | - | - | - | - |
| 1777780000 | 6.11° C | 59% | 1017.2 hPa | - | - | - | - |
| 1777779693 | 6.11° C | 58% | 1017.1 hPa | - | - | - | - |
| 1777779387 | 6.11° C | 59% | 1017.2 hPa | - | - | - | - |
| 1777779080 | 6.11° C | 61% | 1017.2 hPa | - | - | - | - |
| 1777778773 | 6.67° C | 59% | 1017.2 hPa | - | - | - | - |
| 1777778466 | 6.67° C | 60% | 1017.2 hPa | - | - | - | - |
| 1777778159 | 6.67° C | 57% | 1017.2 hPa | - | - | - | - |
| 1777777852 | 6.67° C | 57% | 1017.2 hPa | - | - | - | - |
| 1777777545 | 6.67° C | 56% | 1017.2 hPa | - | - | - | - |
| 1777777238 | 6.67° C | 56% | 1017.2 hPa | - | - | - | - |
| 1777776931 | 6.67° C | 59% | 1017.2 hPa | - | - | - | - |
| 1777776625 | 6.67° C | 57% | 1017.2 hPa | - | - | - | - |
| 1777776318 | 7.22° C | 55% | 1017.2 hPa | - | - | - | - |
| 1777776011 | 7.22° C | 54% | 1017.2 hPa | - | - | - | - |
* Rain since midnight (hover to see other rain measurements)
** Current wind speed in m/s (hover to see current wind gust speed)